Weather History for Fort Smith, AR

Change the Weather History Date:

Wednesday, February 6, 2013

  Actual Average Record
Temperature  
Mean Temperature 52 °F 42 °F  
Max Temperature 65 °F 53 °F 74 °F (1904)
Min Temperature 39 °F 31 °F 6 °F (1985)
Degree Days  
Heating Degree Days 13 23  
Month to date heating degree days 107 142  
Since 1 July heating degree days 1866 2233  
Growing Degree Days 2 (Base 50)    
Moisture  
Dew Point 41 °F    
Average Humidity 68    
Maximum Humidity 96    
Minimum Humidity 40    
Precipitation  
Precipitation 0.00 in 0.09 in 1.28 in (1890)
Month to date precipitation 0.22 0.56  
Year to date precipitation 4.19 3.37  
Sea Level Pressure  
Sea Level Pressure 30.06 in    
Wind  
Wind Speed 8 mph (ENE)    
Max Wind Speed 15 mph    
Max Gust Speed 20 mph    
Visibility 5 miles    
Events Fog    
T = Trace of Precipitation, MM = Missing Value Source: NWS Daily Summary

Daily Weather History Graph

Daily Weather History Graph

Search for Another Location

Airport:

Trip Planner

Search our weather history database for the weather conditions in past years. The results will help you decide how hot, cold, wet, or windy it might be!

Date:

Astronomy

Feb. 06, 2013 Rise Set
Actual Time 7:12 AM CST 5:51 PM CST
Civil Twilight 6:46 AM CST 6:17 PM CST
Nautical Twilight 6:15 AM CST 6:47 PM CST
Astronomical Twilight 5:46 AM CST 7:17 PM CST
Moon 3:52 AM CST (2/6) 2:14 PM CST (2/6)
Length of Visible Light 11h 31m
Length of Day
10h 38m
Waning Crescent, 17% of the Moon is Illuminated
Feb 6
Waning Crescent
Feb 10
New
Feb 17
First Quarter
Feb 25
Full
Mar 4
Last Quarter

Hourly Weather History & Observations

Time (CST) Temp. Windchill Dew Point Humidity Pressure Visibility Wind Dir Wind Speed Gust Speed Precip Events Conditions
12:04 AM 42.8 °F - 41.0 °F 93% 30.06 in 1.0 mi Calm Calm - N/A   Mist
12:08 AM 42.8 °F - 41.0 °F 93% 30.06 in 0.5 mi Calm Calm - N/A Fog Fog
12:20 AM 42.8 °F - 41.0 °F 93% 30.06 in 0.2 mi Calm Calm - N/A Fog Fog
12:53 AM 42.8 °F - 41.0 °F 93% 30.06 in 0.2 mi Calm Calm - N/A Fog Fog
1:35 AM 39.2 °F 37.0 °F 37.4 °F 93% 30.06 in 0.2 mi NE 3.5 mph - N/A Fog Fog
1:44 AM 39.2 °F 37.0 °F 39.2 °F 100% 30.06 in 0.5 mi NE 3.5 mph - N/A Fog Fog
1:53 AM 39.9 °F 37.8 °F 37.9 °F 93% 30.07 in 0.5 mi East 3.5 mph - N/A Fog Fog
1:59 AM 42.8 °F 41.1 °F 39.2 °F 87% 30.07 in 1.2 mi East 3.5 mph - N/A   Scattered Clouds
2:03 AM 42.8 °F 41.1 °F 39.2 °F 87% 30.06 in 0.8 mi East 3.5 mph - N/A   Mist
2:09 AM 42.8 °F 40.1 °F 39.2 °F 87% 30.06 in 0.2 mi East 4.6 mph - N/A Fog Fog
2:17 AM 41.0 °F 39.0 °F 39.2 °F 93% 30.07 in 0.2 mi ENE 3.5 mph - N/A Fog Fog
2:22 AM 41.0 °F - 39.2 °F 93% 30.07 in 0.5 mi Calm Calm - N/A Fog Fog
2:40 AM 41.0 °F 38.0 °F 39.2 °F 93% 30.07 in 1.2 mi NE 4.6 mph - N/A   Scattered Clouds
2:45 AM 41.0 °F 38.0 °F 39.2 °F 93% 30.07 in 3.0 mi NE 4.6 mph - N/A   Scattered Clouds
2:50 AM 42.8 °F 40.1 °F 39.2 °F 87% 30.07 in 4.0 mi NE 4.6 mph - N/A   Mostly Cloudy
2:53 AM 42.1 °F 40.2 °F 39.9 °F 92% 30.07 in 4.0 mi ENE 3.5 mph - N/A   Mostly Cloudy
3:13 AM 42.8 °F 41.1 °F 39.2 °F 87% 30.07 in 1.8 mi East 3.5 mph - N/A   Overcast
3:28 AM 41.0 °F 39.0 °F 39.2 °F 93% 30.06 in 3.0 mi NE 3.5 mph - N/A   Overcast
3:42 AM 42.8 °F - 39.2 °F 87% 30.06 in 1.8 mi Calm Calm - N/A   Overcast
3:48 AM 42.8 °F 41.1 °F 39.2 °F 87% 30.06 in 0.2 mi ENE 3.5 mph - N/A Fog Fog
3:53 AM 42.1 °F 40.2 °F 39.9 °F 92% 30.06 in 0.2 mi ENE 3.5 mph - N/A Fog Fog
4:53 AM 42.1 °F 38.4 °F 39.9 °F 92% 30.08 in 0.2 mi ENE 5.8 mph - N/A Fog Fog
4:59 AM 42.8 °F 40.1 °F 41.0 °F 93% 30.08 in 0.5 mi ENE 4.6 mph - N/A Fog Fog
5:09 AM 42.8 °F 40.1 °F 41.0 °F 93% 30.09 in 0.2 mi ENE 4.6 mph - N/A Fog Fog
5:49 AM 41.0 °F 37.1 °F 39.2 °F 93% 30.09 in 0.2 mi ENE 5.8 mph - N/A Fog Fog
5:53 AM 41.0 °F 36.4 °F 39.9 °F 96% 30.10 in 0.2 mi ENE 6.9 mph - N/A Fog Fog
5:59 AM 42.8 °F 38.6 °F 39.2 °F 87% 30.10 in 0.5 mi ENE 6.9 mph - N/A Fog Fog
6:13 AM 42.8 °F 38.0 °F 39.2 °F 87% 30.09 in 1.0 mi NE 8.1 mph - N/A   Mostly Cloudy
6:19 AM 42.8 °F 38.6 °F 39.2 °F 87% 30.09 in 3.0 mi NE 6.9 mph - N/A   Mostly Cloudy
6:53 AM 42.1 °F 37.7 °F 39.9 °F 92% 30.12 in 4.0 mi ENE 6.9 mph - N/A   Scattered Clouds
7:53 AM 43.0 °F 38.8 °F 39.0 °F 86% 30.12 in 10.0 mi NE 6.9 mph - N/A   Clear
8:53 AM 46.9 °F - 39.9 °F 77% 30.12 in 10.0 mi ENE 11.5 mph - N/A   Scattered Clouds
9:53 AM 52.0 °F - 37.9 °F 59% 30.13 in 10.0 mi East 10.4 mph - N/A   Clear
10:53 AM 55.0 °F - 37.9 °F 53% 30.12 in 10.0 mi ENE 13.8 mph - N/A   Clear
11:53 AM 57.0 °F - 39.0 °F 51% 30.10 in 10.0 mi East 9.2 mph - N/A   Clear
12:53 PM 61.0 °F - 41.0 °F 48% 30.06 in 10.0 mi ENE 12.7 mph - N/A   Clear
1:53 PM 63.0 °F - 42.1 °F 46% 30.02 in 10.0 mi SE 11.5 mph 18.4 mph N/A   Clear
2:53 PM 63.0 °F - 41.0 °F 45% 30.00 in 9.0 mi ESE 10.4 mph - N/A   Mostly Cloudy
3:53 PM 64.0 °F - 39.0 °F 40% 30.00 in 10.0 mi SE 8.1 mph 17.3 mph N/A   Mostly Cloudy
4:53 PM 60.1 °F - 42.1 °F 51% 29.98 in 10.0 mi East 8.1 mph - N/A   Scattered Clouds
5:53 PM 57.9 °F - 44.1 °F 60% 29.98 in 10.0 mi East 11.5 mph - N/A   Clear
6:53 PM 55.0 °F - 44.1 °F 67% 29.99 in 10.0 mi ENE 10.4 mph - N/A   Mostly Cloudy
7:53 PM 53.1 °F - 44.1 °F 71% 29.99 in 10.0 mi East 6.9 mph - N/A   Clear
8:53 PM 50.0 °F - 43.0 °F 77% 29.99 in 10.0 mi ENE 6.9 mph - N/A   Clear
9:53 PM 48.0 °F - 43.0 °F 83% 30.00 in 10.0 mi ENE 5.8 mph - N/A   Clear
10:53 PM 48.9 °F - 44.1 °F 83% 30.00 in 10.0 mi ENE 6.9 mph - N/A   Scattered Clouds
11:00 PM 48.2 °F - 44.6 °F 87% 29.99 in 10.0 mi ENE 8.1 mph - N/A   Mostly Cloudy
11:53 PM 51.1 °F - 45.0 °F 80% 29.98 in 10.0 mi ENE 10.4 mph - N/A   Overcast